| time (UTC) | temp F | wind direction | speed MPH | gust MPH | rain 1hr in | rain 24hr in | rain mn in | humidity % | barometer mb |
| 20260504081558 | 0 | 0.0 | 0.0 | 0.00 | 0.00 | 0.00 | 1004.3 | ||
| 20260504081500 | 31 | 297 | 0.0 | 0.0 | 0.00 | 0.00 | 0.00 | 28 | 1005.7 |
| 20260504050004 | 35 | 328 | 0.0 | 0.0 | 0.00 | 0.00 | 0.00 | 63 | 1004.9 |
| 20260504044525 | 0 | 0.0 | 0.0 | 0.00 | 0.00 | 0.00 | 1004.6 | ||
| 20260504044510 | 36 | 328 | 0.0 | 5.0 | 0.00 | 0.00 | 0.00 | 64 | 1004.9 |
| 20260504043011 | 0 | 0.0 | 0.0 | 0.00 | 0.00 | 0.00 | 1004.7 | ||
| 20260504043007 | 36 | 326 | 0.0 | 4.0 | 0.00 | 0.00 | 0.00 | 64 | 1005.1 |
| 20260504041506 | 0 | 0.0 | 0.0 | 0.00 | 0.00 | 0.00 | 1004.7 | ||
| 20260504041502 | 36 | 351 | 1.0 | 8.0 | 0.00 | 0.00 | 0.00 | 64 | 1005.0 |
| 20260504040057 | 0 | 0.0 | 0.0 | 0.00 | 0.00 | 0.00 | 1004.7 | ||
| 20260504040002 | 37 | 340 | 1.0 | 5.0 | 0.00 | 0.00 | 0.00 | 63 | 1005.0 |
| 20260504034653 | 0 | 0.0 | 0.0 | 0.00 | 0.00 | 0.00 | 1004.6 | ||
| 20260504034547 | 36 | 25 | 0.0 | 2.0 | 0.00 | 0.00 | 0.00 | 64 | 1005.0 |
| 20260504033048 | 0 | 0.0 | 0.0 | 0.00 | 0.00 | 0.00 | 1004.7 | ||
| 20260504033043 | 35 | 344 | 0.0 | 0.0 | 0.00 | 0.00 | 0.00 | 63 | 1005.0 |
| 20260504031545 | 0 | 0.0 | 0.0 | 0.00 | 0.00 | 0.00 | 1004.7 | ||
| 20260504031532 | 35 | 3 | 0.0 | 3.0 | 0.00 | 0.00 | 0.00 | 63 | 1005.0 |
| 20260504030039 | 0 | 0.0 | 0.0 | 0.00 | 0.00 | 0.00 | 1004.7 | ||
| 20260504030036 | 35 | 321 | 0.0 | 0.0 | 0.00 | 0.00 | 0.00 | 63 | 1005.0 |
| 20260504024540 | 0 | 0.0 | 0.0 | 0.00 | 0.00 | 0.00 | 1004.7 | ||
| 20260504024528 | 36 | 283 | 0.0 | 0.0 | 0.00 | 0.00 | 0.00 | 64 | 1005.1 |
| 20260504023024 | 37 | 283 | 0.0 | 0.0 | 0.00 | 0.00 | 0.00 | 64 | 1004.9 |
| 20260504023016 | 0 | 0.0 | 0.0 | 0.00 | 0.00 | 0.00 | 1004.6 | ||
| 20260504021521 | 38 | 305 | 0.0 | 0.0 | 0.00 | 0.00 | 0.00 | 64 | 1005.0 |
| 20260504021512 | 0 | 0.0 | 0.0 | 0.00 | 0.00 | 0.00 | 1004.6 | ||
| 20260504020027 | 38 | 287 | 0.0 | 0.0 | 0.00 | 0.00 | 0.00 | 63 | 1004.9 |
| 20260504020009 | 0 | 0.0 | 0.0 | 0.00 | 0.00 | 0.00 | 1004.6 | ||
| 20260504014516 | 39 | 341 | 0.0 | 10.0 | 0.00 | 0.00 | 0.00 | 63 | 1004.9 |
| 20260504014502 | 0 | 0.0 | 0.0 | 0.00 | 0.00 | 0.00 | 1004.6 | ||
| 20260504013123 | 0 | 0.0 | 0.0 | 0.00 | 0.00 | 0.00 | 1004.5 | ||
| 20260504013019 | 40 | 266 | 1.0 | 8.0 | 0.00 | 0.00 | 0.00 | 62 | 1004.8 |
| 20260504011557 | 40 | 307 | 5.0 | 15.0 | 0.00 | 0.00 | 0.00 | 61 | 1004.7 |
| 20260504011555 | 0 | 0.0 | 0.0 | 0.00 | 0.00 | 0.00 | 1004.4 | ||
| 20260504010101 | 41 | 299 | 6.0 | 14.0 | 0.00 | 0.00 | 0.00 | 60 | 1004.6 |
| 20260504010049 | 0 | 0.0 | 0.0 | 0.00 | 0.00 | 0.00 | 1004.3 | ||
| 20260504004545 | 0 | 0.0 | 0.0 | 0.00 | 0.00 | 0.00 | 1004.3 | ||
| 20260504003042 | 41 | 334 | 3.0 | 10.0 | 0.00 | 0.00 | 0.00 | 58 | 1004.4 |
| 20260504003025 | 0 | 0.0 | 0.0 | 0.00 | 0.00 | 0.00 | 1004.3 | ||
| 20260504001541 | 41 | 14 | 5.0 | 15.0 | 0.00 | 0.00 | 0.00 | 58 | 1004.1 |
| 20260504001528 | 0 | 0.0 | 0.0 | 0.00 | 0.00 | 0.00 | 1004.1 | ||
| 20260504000039 | 42 | 13 | 6.0 | 17.0 | 0.00 | 0.00 | 0.00 | 57 | 1004.0 |
| 20260504000016 | 0 | 0.0 | 0.0 | 0.00 | 0.00 | 0.00 | 1004.1 | ||
| 20260503234541 | 42 | 357 | 6.0 | 12.0 | 0.00 | 0.00 | 0.00 | 56 | 1003.9 |
| 20260503234512 | 0 | 0.0 | 0.0 | 0.00 | 0.00 | 0.00 | 1004.0 | ||
| 20260503233037 | 42 | 47 | 3.0 | 13.0 | 0.00 | 0.00 | 0.00 | 55 | 1003.8 |
| 20260503233012 | 0 | 0.0 | 0.0 | 0.00 | 0.00 | 0.00 | 1004.0 | ||
| 20260503231536 | 42 | 350 | 4.0 | 14.0 | 0.00 | 0.00 | 0.00 | 54 | 1003.8 |
| 20260503231503 | 0 | 0.0 | 0.0 | 0.00 | 0.00 | 0.00 | 1004.0 | ||
| 20260503230050 | 42 | 45 | 9.0 | 22.0 | 0.00 | 0.00 | 0.00 | 54 | 1003.6 |
| 20260503230006 | 39 | 302 | 8.0 | 15.0 | 0.00 | 0.00 | 0.00 | 59 | 1004.1 |
| 20260503224522 | 43 | 8 | 3.0 | 15.0 | 0.00 | 0.00 | 0.00 | 54 | 1003.7 |
| 20260503224501 | 39 | 295 | 7.0 | 13.0 | 0.00 | 0.00 | 0.00 | 60 | 1004.0 |
| 20260503223046 | 39 | 263 | 7.0 | 17.0 | 0.00 | 0.00 | 0.00 | 60 | 1003.9 |
| 20260503223021 | 43 | 1 | 7.0 | 16.0 | 0.00 | 0.00 | 0.00 | 54 | 1003.4 |
| 20260503221557 | 39 | 244 | 9.0 | 15.0 | 0.00 | 0.00 | 0.00 | 59 | 1003.8 |
| 20260503221522 | 43 | 337 | 6.0 | 14.0 | 0.00 | 0.00 | 0.00 | 54 | 1003.4 |
| 20260503220044 | 40 | 302 | 10.0 | 17.0 | 0.00 | 0.00 | 0.00 | 58 | 1003.8 |
| 20260503220029 | 43 | 261 | 8.0 | 21.0 | 0.00 | 0.00 | 0.00 | 53 | 1003.3 |
| 20260503214544 | 40 | 290 | 8.0 | 20.0 | 0.00 | 0.00 | 0.00 | 59 | 1003.8 |
| 20260503214529 | 44 | 43 | 5.0 | 12.0 | 0.00 | 0.00 | 0.00 | 52 | 1003.3 |
| 20260503213046 | 40 | 299 | 8.0 | 18.0 | 0.00 | 0.00 | 0.00 | 60 | 1003.9 |
| 20260503213029 | 44 | 348 | 8.0 | 22.0 | 0.00 | 0.00 | 0.00 | 51 | 1003.4 |
| 20260503211542 | 40 | 317 | 9.0 | 21.0 | 0.00 | 0.00 | 0.00 | 58 | 1003.9 |
| 20260503211518 | 45 | 5 | 8.0 | 21.0 | 0.00 | 0.00 | 0.00 | 48 | 1003.3 |
| 20260503210041 | 41 | 259 | 8.0 | 19.0 | 0.00 | 0.00 | 0.00 | 56 | 1003.8 |
| 20260503210019 | 45 | 348 | 3.0 | 16.0 | 0.00 | 0.00 | 0.00 | 47 | 1003.0 |
| 20260503204559 | 45 | 335 | 7.0 | 26.0 | 0.00 | 0.00 | 0.00 | 46 | 1003.1 |
| 20260503204546 | 41 | 278 | 8.0 | 18.0 | 0.00 | 0.00 | 0.00 | 56 | 1003.9 |
| 20260503203058 | 46 | 25 | 10.0 | 20.0 | 0.00 | 0.00 | 0.00 | 44 | 1003.2 |
| 20260503203034 | 42 | 323 | 5.0 | 17.0 | 0.00 | 0.00 | 0.00 | 53 | 1004.0 |
| 20260503201544 | 46 | 62 | 5.0 | 22.0 | 0.00 | 0.00 | 0.00 | 46 | 1003.2 |
| 20260503201526 | 42 | 316 | 7.0 | 14.0 | 0.00 | 0.00 | 0.00 | 51 | 1003.9 |
| 20260503200038 | 46 | 5 | 8.0 | 17.0 | 0.00 | 0.00 | 0.00 | 46 | 1003.3 |
| 20260503200027 | 43 | 281 | 6.0 | 14.0 | 0.00 | 0.00 | 0.00 | 51 | 1004.0 |
| 20260503194525 | 43 | 252 | 6.0 | 16.0 | 0.00 | 0.00 | 0.00 | 50 | 1004.1 |
| 20260503193038 | 43 | 308 | 10.0 | 19.0 | 0.00 | 0.00 | 0.00 | 51 | 1004.2 |
| 20260503193025 | 47 | 304 | 7.0 | 19.0 | 0.00 | 0.00 | 0.00 | 44 | 1003.4 |
| 20260503191551 | 43 | 306 | 10.0 | 21.0 | 0.00 | 0.00 | 0.00 | 50 | 1004.4 |
| 20260503191523 | 48 | 7 | 11.0 | 19.0 | 0.00 | 0.00 | 0.00 | 43 | 1003.4 |
| 20260503190031 | 47 | 320 | 8.0 | 19.0 | 0.00 | 0.00 | 0.00 | 44 | 1003.5 |
| 20260503190027 | 44 | 240 | 8.0 | 16.0 | 0.00 | 0.00 | 0.00 | 49 | 1004.2 |
| 20260503184522 | 44 | 306 | 8.0 | 15.0 | 0.00 | 0.00 | 0.00 | 48 | 1004.2 |
| 20260503183020 | 47 | 305 | 13.0 | 19.0 | 0.00 | 0.00 | 0.00 | 45 | 1003.4 |
| 20260503183007 | 44 | 306 | 8.0 | 17.0 | 0.00 | 0.00 | 0.00 | 47 | 1004.0 |
| 20260503181537 | 47 | 338 | 7.0 | 18.0 | 0.00 | 0.00 | 0.00 | 48 | 1003.4 |
| 20260503181507 | 45 | 254 | 7.0 | 18.0 | 0.00 | 0.00 | 0.00 | 46 | 1004.1 |
| 20260503180031 | 46 | 29 | 2.0 | 14.0 | 0.00 | 0.00 | 0.00 | 50 | 1003.7 |
| 20260503180006 | 44 | 279 | 7.0 | 18.0 | 0.00 | 0.00 | 0.00 | 47 | 1004.3 |
| 20260503174623 | 46 | 48 | 3.0 | 19.0 | 0.00 | 0.00 | 0.00 | 51 | 1003.7 |
| 20260503174503 | 44 | 315 | 9.0 | 15.0 | 0.00 | 0.00 | 0.00 | 49 | 1004.3 |
| 20260503173110 | 47 | 6 | 8.0 | 24.0 | 0.00 | 0.00 | 0.00 | 50 | 1003.7 |
| 20260503173002 | 43 | 298 | 5.0 | 12.0 | 0.00 | 0.00 | 0.00 | 54 | 1004.7 |
| 20260503171559 | 42 | 292 | 6.0 | 14.0 | 0.00 | 0.00 | 0.00 | 56 | 1004.9 |
| 20260503171555 | 47 | 26 | 4.0 | 13.0 | 0.00 | 0.00 | 0.00 | 46 | 1003.8 |
| 20260503170117 | 42 | 288 | 8.0 | 15.0 | 0.00 | 0.01 | 0.00 | 58 | 1005.0 |